SBI5310 UNKL-UNNT

Flight info

Callsign SBI5310
Flight time 1h 2m
Altitude 32000
Route APRUS2F APRUS B926 NATIR NATIR1K
Aircraft A320/M-SDE3FGHIRWY/LB1

Departure

Time 2026-05-07 19:08
Airport Krasnoyarsk International Airport (UNKL)

Arrival

Time 2026-05-07 20:10
Airport Novosibirsk Tolmachevo Airport (UNNT)
Time Latitude Longitude Altitude Speed Heading
2026-05-07 18:19 56.17928 92.48618 957 ft 0 kts 24°
2026-05-07 18:55 56.17924 92.48615 958 ft 4 kts 23°
2026-05-07 18:55 56.17900 92.48596 954 ft 4 kts 23°
2026-05-07 18:55 56.17875 92.48577 955 ft 4 kts 22°
2026-05-07 18:56 56.17862 92.48570 956 ft 2 kts 343°
2026-05-07 18:56 56.17855 92.48575 953 ft 2 kts 311°
2026-05-07 18:56 56.17849 92.48591 953 ft 2 kts 297°
2026-05-07 18:56 56.17844 92.48607 953 ft 0 kts 291°
2026-05-07 18:57 56.17845 92.48607 953 ft 0 kts 291°
2026-05-07 18:59 56.17848 92.48593 952 ft 4 kts 291°
2026-05-07 18:59 56.17856 92.48499 954 ft 11 kts 253°
2026-05-07 18:59 56.17771 92.48414 955 ft 17 kts 199°
2026-05-07 19:00 56.17726 92.48468 957 ft 7 kts 110°
2026-05-07 19:00 56.17693 92.48602 957 ft 12 kts 114°
2026-05-07 19:00 56.17689 92.48620 957 ft 0 kts 113°
2026-05-07 19:00 56.17673 92.48686 953 ft 11 kts 113°
2026-05-07 19:01 56.17630 92.48864 954 ft 19 kts 113°
2026-05-07 19:01 56.17572 92.49111 954 ft 23 kts 112°
2026-05-07 19:01 56.17502 92.49403 957 ft 28 kts 113°
2026-05-07 19:01 56.17421 92.49744 955 ft 32 kts 111°
2026-05-07 19:02 56.17343 92.50078 957 ft 30 kts 112°
2026-05-07 19:02 56.17291 92.50301 956 ft 0 kts 112°
2026-05-07 19:02 56.17289 92.50309 956 ft 5 kts 112°
2026-05-07 19:02 56.17239 92.50396 955 ft 12 kts 194°
2026-05-07 19:03 56.17169 92.50367 954 ft 0 kts 199°
2026-05-07 19:04 56.17167 92.50366 954 ft 1 kts 199°
2026-05-07 19:05 56.17161 92.50362 954 ft 1 kts 199°
2026-05-07 19:05 56.17147 92.50353 953 ft 5 kts 201°
2026-05-07 19:05 56.17088 92.50281 952 ft 15 kts 244°
2026-05-07 19:05 56.17094 92.50174 952 ft 0 kts 291°
2026-05-07 19:07 56.17096 92.50167 952 ft 8 kts 291°
2026-05-07 19:07 56.17245 92.49533 953 ft 100 kts 293°
2026-05-07 19:07 56.17616 92.47942 995 ft 171 kts 292°
2026-05-07 19:07 56.18152 92.45739 1274 ft 212 kts 293°
2026-05-07 19:08 56.18799 92.43102 1693 ft 246 kts 292°
2026-05-07 19:08 56.19492 92.40243 2668 ft 251 kts 290°
2026-05-07 19:08 56.20194 92.37398 3839 ft 247 kts 293°
2026-05-07 19:08 56.20902 92.34557 4850 ft 251 kts 292°
2026-05-07 19:09 56.21587 92.31652 5826 ft 254 kts 290°
2026-05-07 19:09 56.21751 92.28546 6707 ft 259 kts 262°
2026-05-07 19:09 56.21262 92.25390 7567 ft 266 kts 251°
2026-05-07 19:09 56.20519 92.22305 8414 ft 272 kts 247°
2026-05-07 19:10 56.19695 92.19219 9264 ft 277 kts 246°
2026-05-07 19:10 56.18869 92.16058 10101 ft 282 kts 248°
2026-05-07 19:10 56.18055 92.12762 10627 ft 297 kts 249°
2026-05-07 19:10 56.17233 92.09239 11063 ft 314 kts 250°
2026-05-07 19:11 56.16404 92.05531 11636 ft 324 kts 250°
2026-05-07 19:11 56.15581 92.01749 12413 ft 328 kts 251°
2026-05-07 19:11 56.14766 91.97962 13206 ft 331 kts 251°
2026-05-07 19:11 56.13936 91.94093 13970 ft 334 kts 251°
2026-05-07 19:12 56.13096 91.90187 14654 ft 338 kts 251°
2026-05-07 19:12 56.12244 91.86242 15328 ft 341 kts 251°
2026-05-07 19:12 56.11384 91.82268 15997 ft 344 kts 251°
2026-05-07 19:12 56.10510 91.78245 16663 ft 348 kts 251°
2026-05-07 19:13 56.09626 91.74186 17319 ft 351 kts 251°
2026-05-07 19:13 56.08733 91.70091 17980 ft 355 kts 251°
2026-05-07 19:13 56.07831 91.65960 18584 ft 358 kts 251°
2026-05-07 19:13 56.06930 91.61844 19138 ft 361 kts 251°
2026-05-07 19:14 56.06007 91.57645 19706 ft 364 kts 251°
2026-05-07 19:14 56.05072 91.53411 20279 ft 367 kts 251°
2026-05-07 19:14 56.04129 91.49152 20853 ft 370 kts 251°
2026-05-07 19:14 56.03179 91.44861 21420 ft 373 kts 251°
2026-05-07 19:15 56.02222 91.40538 21983 ft 376 kts 251°
2026-05-07 19:15 56.01254 91.36176 22545 ft 379 kts 251°
2026-05-07 19:15 56.00279 91.31786 23106 ft 382 kts 251°
2026-05-07 19:15 55.99294 91.27366 23654 ft 384 kts 251°
2026-05-07 19:16 55.98376 91.22881 24109 ft 385 kts 257°
2026-05-07 19:16 55.97802 91.18285 24565 ft 385 kts 261°
2026-05-07 19:16 55.97263 91.13585 25011 ft 388 kts 261°
2026-05-07 19:16 55.96721 91.08932 25443 ft 390 kts 261°
2026-05-07 19:17 55.96161 91.04192 25874 ft 392 kts 261°
2026-05-07 19:17 55.95593 90.99424 26299 ft 393 kts 261°
2026-05-07 19:17 55.95023 90.94643 26710 ft 395 kts 261°
2026-05-07 19:17 55.94449 90.89827 27117 ft 397 kts 261°
2026-05-07 19:18 55.93880 90.85063 27511 ft 399 kts 261°
2026-05-07 19:18 55.93298 90.80211 27912 ft 401 kts 261°
2026-05-07 19:18 55.92711 90.75338 28293 ft 403 kts 261°
2026-05-07 19:18 55.92120 90.70440 28671 ft 405 kts 261°
2026-05-07 19:19 55.91526 90.65538 29048 ft 407 kts 261°
2026-05-07 19:19 55.90923 90.60588 29405 ft 409 kts 261°
2026-05-07 19:19 55.90316 90.55636 29762 ft 410 kts 261°
2026-05-07 19:19 55.89708 90.50657 30102 ft 412 kts 261°
2026-05-07 19:20 55.89098 90.45661 30384 ft 414 kts 261°
2026-05-07 19:20 55.88480 90.40646 30681 ft 414 kts 261°
2026-05-07 19:20 55.87858 90.35633 30980 ft 415 kts 261°
2026-05-07 19:20 55.87238 90.30683 31269 ft 415 kts 261°
2026-05-07 19:21 55.86607 90.25658 31551 ft 416 kts 261°
2026-05-07 19:21 55.85975 90.20644 31891 ft 414 kts 261°
2026-05-07 19:21 55.85348 90.15655 32317 ft 411 kts 262°
2026-05-07 19:21 55.84726 90.10711 32739 ft 408 kts 262°
2026-05-07 19:22 55.84106 90.05807 33173 ft 405 kts 262°
2026-05-07 19:22 55.83489 90.00945 33606 ft 401 kts 262°
2026-05-07 19:22 55.82876 89.96125 33965 ft 398 kts 262°
2026-05-07 19:22 55.82275 89.91435 34032 ft 388 kts 262°
2026-05-07 19:23 55.81682 89.86845 34035 ft 377 kts 262°
2026-05-07 19:23 55.81095 89.82310 34036 ft 379 kts 262°
2026-05-07 19:23 55.79899 89.72978 34036 ft 394 kts 262°
2026-05-07 19:24 55.78655 89.63345 34032 ft 406 kts 262°
2026-05-07 19:24 55.77366 89.53463 34033 ft 413 kts 262°
2026-05-07 19:25 55.76059 89.43594 34251 ft 413 kts 262°
2026-05-07 19:25 55.75396 89.38625 34364 ft 413 kts 262°
2026-05-07 19:25 55.74733 89.33663 34492 ft 413 kts 262°
2026-05-07 19:26 55.74074 89.28703 34600 ft 413 kts 262°
2026-05-07 19:26 55.73408 89.23735 34718 ft 414 kts 261°
2026-05-07 19:26 55.72737 89.18771 34844 ft 414 kts 261°
2026-05-07 19:26 55.72068 89.13811 34929 ft 414 kts 261°
2026-05-07 19:27 55.71396 89.08834 34428 ft 415 kts 261°
2026-05-07 19:27 55.70723 89.03883 34099 ft 413 kts 261°
2026-05-07 19:27 55.70058 88.99015 33985 ft 412 kts 261°
2026-05-07 19:27 55.69384 88.94072 34028 ft 412 kts 261°
2026-05-07 19:28 55.68040 88.84193 34029 ft 412 kts 261°
2026-05-07 19:28 55.66690 88.74336 34029 ft 412 kts 261°
2026-05-07 19:29 55.65325 88.64489 34029 ft 412 kts 261°
2026-05-07 19:29 55.63971 88.54713 34031 ft 412 kts 261°
2026-05-07 19:30 55.62598 88.44886 34027 ft 412 kts 261°
2026-05-07 19:30 55.61209 88.35055 34032 ft 412 kts 260°
2026-05-07 19:31 55.59814 88.25244 34032 ft 412 kts 260°
2026-05-07 19:31 55.58415 88.15425 34033 ft 412 kts 260°
2026-05-07 19:32 55.57010 88.05618 34031 ft 412 kts 260°
2026-05-07 19:32 55.55599 87.95824 34035 ft 412 kts 259°
2026-05-07 19:33 55.54221 87.86325 34043 ft 412 kts 259°
2026-05-07 19:33 55.52806 87.76668 34032 ft 413 kts 259°
2026-05-07 19:34 55.51362 87.66863 34022 ft 413 kts 259°
2026-05-07 19:34 55.49905 87.57072 34025 ft 413 kts 259°
2026-05-07 19:35 55.48443 87.47260 34033 ft 414 kts 259°
2026-05-07 19:35 55.46973 87.37526 34033 ft 414 kts 259°
2026-05-07 19:36 55.45485 87.27721 34024 ft 414 kts 258°
2026-05-07 19:36 55.43991 87.17924 34024 ft 414 kts 258°
2026-05-07 19:37 55.42487 87.08130 34025 ft 415 kts 258°
2026-05-07 19:37 55.40993 86.98396 34018 ft 415 kts 258°
2026-05-07 19:38 55.39473 86.88605 34018 ft 415 kts 258°
2026-05-07 19:38 55.37964 86.78974 34018 ft 415 kts 258°
2026-05-07 19:39 55.36427 86.69189 34014 ft 415 kts 258°
2026-05-07 19:39 55.34894 86.59475 34008 ft 415 kts 258°
2026-05-07 19:40 55.33341 86.49698 34005 ft 415 kts 258°
2026-05-07 19:40 55.31779 86.39926 34004 ft 416 kts 257°
2026-05-07 19:41 55.30208 86.30165 34005 ft 416 kts 257°
2026-05-07 19:41 55.28629 86.20404 34000 ft 416 kts 257°
2026-05-07 19:42 55.27139 86.10696 33997 ft 412 kts 263°
2026-05-07 19:42 55.26821 86.05816 34001 ft 392 kts 267°
2026-05-07 19:42 55.26609 86.01155 34001 ft 378 kts 267°
2026-05-07 19:43 55.26393 85.96584 33787 ft 372 kts 267°
2026-05-07 19:43 55.26176 85.92131 33516 ft 362 kts 267°
2026-05-07 19:43 55.25959 85.87755 33242 ft 360 kts 266°
2026-05-07 19:43 55.25741 85.83394 32971 ft 358 kts 266°
2026-05-07 19:44 55.25530 85.79112 32713 ft 357 kts 266°
2026-05-07 19:44 55.25315 85.74786 32443 ft 355 kts 266°
2026-05-07 19:44 55.25102 85.70483 32185 ft 354 kts 266°
2026-05-07 19:44 55.24891 85.66197 31926 ft 352 kts 266°
2026-05-07 19:45 55.24678 85.61927 31667 ft 351 kts 266°
2026-05-07 19:45 55.24465 85.57682 31411 ft 349 kts 266°
2026-05-07 19:45 55.24249 85.53490 31093 ft 341 kts 266°
2026-05-07 19:45 55.24034 85.49378 30703 ft 336 kts 265°
2026-05-07 19:46 55.23821 85.45328 30318 ft 332 kts 265°
2026-05-07 19:46 55.23613 85.41373 29922 ft 328 kts 265°
2026-05-07 19:46 55.23406 85.37428 29534 ft 322 kts 265°
2026-05-07 19:46 55.23202 85.33553 29175 ft 316 kts 265°
2026-05-07 19:47 55.23002 85.29760 28827 ft 310 kts 265°
2026-05-07 19:47 55.22802 85.26005 28492 ft 309 kts 265°
2026-05-07 19:47 55.22601 85.22261 28147 ft 309 kts 265°
2026-05-07 19:47 55.22399 85.18525 27806 ft 308 kts 265°
2026-05-07 19:48 55.22196 85.14796 27461 ft 307 kts 265°
2026-05-07 19:48 55.21990 85.11081 27117 ft 306 kts 265°
2026-05-07 19:48 55.21785 85.07424 26761 ft 305 kts 265°
2026-05-07 19:48 55.21579 85.03725 26394 ft 305 kts 265°
2026-05-07 19:49 55.21373 85.00042 26039 ft 304 kts 265°
2026-05-07 19:49 55.21167 84.96364 25657 ft 303 kts 265°
2026-05-07 19:49 55.20961 84.92695 25294 ft 302 kts 265°
2026-05-07 19:49 55.20752 84.89038 24915 ft 302 kts 265°
2026-05-07 19:50 55.20543 84.85387 24530 ft 301 kts 265°
2026-05-07 19:50 55.20334 84.81751 24137 ft 300 kts 265°
2026-05-07 19:50 55.20124 84.78117 23746 ft 299 kts 265°
2026-05-07 19:50 55.19915 84.74501 23324 ft 298 kts 265°
2026-05-07 19:51 55.19706 84.70942 22927 ft 297 kts 263°
2026-05-07 19:51 55.19252 84.67421 22505 ft 297 kts 253°
2026-05-07 19:51 55.18641 84.63986 22087 ft 295 kts 254°
2026-05-07 19:51 55.18049 84.60563 21681 ft 293 kts 254°
2026-05-07 19:52 55.17464 84.57149 21276 ft 292 kts 254°
2026-05-07 19:52 55.16887 84.53761 20876 ft 290 kts 254°
2026-05-07 19:52 55.16310 84.50383 20485 ft 289 kts 254°
2026-05-07 19:52 55.15734 84.47027 20092 ft 288 kts 254°
2026-05-07 19:53 55.15156 84.43687 19708 ft 287 kts 253°
2026-05-07 19:53 55.14589 84.40406 19328 ft 286 kts 253°
2026-05-07 19:53 55.14011 84.37080 18939 ft 286 kts 253°
2026-05-07 19:53 55.13434 84.33763 18560 ft 285 kts 253°
2026-05-07 19:54 55.12854 84.30448 18163 ft 285 kts 253°
2026-05-07 19:54 55.12273 84.27138 17757 ft 284 kts 253°
2026-05-07 19:54 55.11694 84.23844 17382 ft 283 kts 252°
2026-05-07 19:54 55.11119 84.20573 17007 ft 281 kts 252°
2026-05-07 19:55 55.10546 84.17321 16637 ft 280 kts 252°
2026-05-07 19:55 55.09977 84.14115 16298 ft 279 kts 252°
2026-05-07 19:55 55.09404 84.10880 15931 ft 279 kts 252°
2026-05-07 19:55 55.08831 84.07646 15580 ft 278 kts 252°
2026-05-07 19:56 55.08260 84.04421 15227 ft 278 kts 252°
2026-05-07 19:56 55.07885 84.01106 14876 ft 279 kts 263°
2026-05-07 19:56 55.07695 83.97739 14523 ft 280 kts 262°
2026-05-07 19:56 55.07495 83.94354 14157 ft 280 kts 262°
2026-05-07 19:57 55.07289 83.90967 13803 ft 281 kts 261°
2026-05-07 19:57 55.07079 83.87577 13414 ft 281 kts 262°
2026-05-07 19:57 55.06871 83.84229 13043 ft 281 kts 262°
2026-05-07 19:57 55.06660 83.80856 12677 ft 280 kts 262°
2026-05-07 19:58 55.06447 83.77489 12312 ft 279 kts 262°
2026-05-07 19:58 55.06234 83.74138 11945 ft 278 kts 262°
2026-05-07 19:58 55.06022 83.70793 11566 ft 277 kts 262°
2026-05-07 19:58 55.05810 83.67457 11194 ft 276 kts 262°
2026-05-07 19:59 55.05599 83.64139 10816 ft 275 kts 262°
2026-05-07 19:59 55.05384 83.60823 10432 ft 275 kts 262°
2026-05-07 19:59 55.05168 83.57520 10052 ft 274 kts 262°
2026-05-07 19:59 55.04953 83.54220 9629 ft 273 kts 262°
2026-05-07 20:00 55.04741 83.50934 9223 ft 272 kts 262°
2026-05-07 20:00 55.04533 83.47717 8834 ft 270 kts 262°
2026-05-07 20:00 55.04322 83.44484 8434 ft 268 kts 262°
2026-05-07 20:00 55.04113 83.41268 8032 ft 266 kts 262°
2026-05-07 20:01 55.03915 83.38245 7648 ft 264 kts 262°
2026-05-07 20:01 55.03670 83.35084 7237 ft 262 kts 256°
2026-05-07 20:01 55.03045 83.32125 6864 ft 260 kts 241°
2026-05-07 20:01 55.01996 83.29497 6679 ft 266 kts 233°
2026-05-07 20:02 55.00873 83.26945 6492 ft 266 kts 233°
2026-05-07 20:02 54.99768 83.24420 6304 ft 263 kts 233°
2026-05-07 20:02 54.98691 83.21953 6175 ft 249 kts 233°
2026-05-07 20:02 54.97672 83.19618 6042 ft 236 kts 233°
2026-05-07 20:03 54.96706 83.17402 5906 ft 224 kts 233°
2026-05-07 20:03 54.95778 83.15269 5666 ft 219 kts 233°
2026-05-07 20:03 54.94855 83.13156 5390 ft 220 kts 234°
2026-05-07 20:03 54.94132 83.10857 5199 ft 214 kts 253°
2026-05-07 20:04 54.93957 83.08350 5016 ft 207 kts 274°
2026-05-07 20:04 54.94302 83.05953 4765 ft 204 kts 294°
2026-05-07 20:04 54.95083 83.03970 4520 ft 195 kts 311°
2026-05-07 20:04 54.95964 83.02268 4288 ft 184 kts 309°
2026-05-07 20:05 54.96798 83.00630 4142 ft 182 kts 309°
2026-05-07 20:05 54.97628 82.98992 3895 ft 179 kts 309°
2026-05-07 20:05 54.98442 82.97388 3658 ft 175 kts 309°
2026-05-07 20:05 54.99245 82.95800 3456 ft 174 kts 309°
2026-05-07 20:06 55.00045 82.94216 3256 ft 174 kts 309°
2026-05-07 20:06 55.00841 82.92640 3065 ft 173 kts 309°
2026-05-07 20:06 55.01636 82.91068 2868 ft 173 kts 309°
2026-05-07 20:06 55.02428 82.89493 2600 ft 172 kts 307°
2026-05-07 20:07 55.02983 82.87691 2341 ft 169 kts 284°
2026-05-07 20:07 55.03105 82.85709 2057 ft 166 kts 263°
2026-05-07 20:07 55.02930 82.83755 1884 ft 158 kts 260°
2026-05-07 20:07 55.02766 82.81985 1772 ft 137 kts 261°
2026-05-07 20:08 55.02620 82.80371 1682 ft 135 kts 261°
2026-05-07 20:08 55.02475 82.78762 1597 ft 132 kts 261°
2026-05-07 20:08 55.02334 82.77194 1468 ft 131 kts 261°
2026-05-07 20:08 55.02193 82.75619 1299 ft 132 kts 261°
2026-05-07 20:09 55.02050 82.74021 1121 ft 134 kts 261°
2026-05-07 20:09 55.01905 82.72400 939 ft 136 kts 260°
2026-05-07 20:09 55.01761 82.70790 755 ft 139 kts 260°
2026-05-07 20:10 55.01474 82.67547 410 ft 134 kts 259°
2026-05-07 20:10 55.01333 82.66103 373 ft 94 kts 259°
2026-05-07 20:10 55.01268 82.65314 373 ft 38 kts 261°
2026-05-07 20:10 55.01221 82.64816 373 ft 46 kts 262°
2026-05-07 20:11 55.01171 82.64278 374 ft 43 kts 261°
2026-05-07 20:11 55.01123 82.63989 375 ft 6 kts 198°
2026-05-07 20:11 55.01035 82.64004 374 ft 20 kts 170°
2026-05-07 20:11 55.01010 82.64011 374 ft 0 kts 171°
2026-05-07 20:13 55.01009 82.64013 374 ft 1 kts 156°
2026-05-07 20:13 55.00994 82.64077 374 ft 12 kts 109°
2026-05-07 20:13 55.00971 82.64240 373 ft 15 kts 103°
2026-05-07 20:13 55.00946 82.64426 373 ft 17 kts 103°
2026-05-07 20:14 55.00921 82.64623 373 ft 15 kts 102°
2026-05-07 20:14 55.00899 82.64795 373 ft 13 kts 102°
2026-05-07 20:14 55.00895 82.64823 373 ft 0 kts 102°
2026-05-07 20:15 55.00889 82.64866 373 ft 3 kts 103°
2026-05-07 20:15 55.00888 82.64870 373 ft 0 kts 103°
2026-05-07 20:15 55.00880 82.64932 373 ft 10 kts 103°
2026-05-07 20:16 55.00872 82.65041 373 ft 9 kts 86°
2026-05-07 20:16 55.00881 82.65169 373 ft 13 kts 85°
2026-05-07 20:16 55.00888 82.65331 373 ft 14 kts 82°
2026-05-07 20:16 55.00903 82.65499 373 ft 14 kts 81°
2026-05-07 20:17 55.00919 82.65673 373 ft 15 kts 82°
2026-05-07 20:17 55.00936 82.65858 373 ft 16 kts 81°
2026-05-07 20:17 55.00954 82.66061 373 ft 16 kts 79°
2026-05-07 20:17 55.00993 82.66238 373 ft 13 kts 71°
2026-05-07 20:18 55.01023 82.66387 373 ft 13 kts 70°
2026-05-07 20:18 55.01058 82.66540 373 ft 15 kts 67°
2026-05-07 20:18 55.01091 82.66697 373 ft 11 kts 86°
2026-05-07 20:18 55.01050 82.66748 373 ft 4 kts 168°
2026-05-07 20:19 55.01033 82.66753 373 ft 0 kts 169°
2026-05-07 20:22 55.01034 82.66759 373 ft 0 kts 169°